Simultaneous Nadir Overpasses (SNOs) Predictions

Prediction of SNOs between AQUA and METOP-B Satellite Orbit:

Table of predicted SNOs for the next 14.0 days since TLE Epoch: 3/22/2019
Index Date (AQUA) Time (AQUA) Lat,Lon (AQUA) SZA (AQUA ) Date (METOP-B) Time (METOP-B) Lat,Lon (METOP-B) SZA (METOP-B ) Distance(km) Time Diff (sec)
1 03/24/2019 20:03:06 -73.47, 54.29 108.07 03/24/2019 20:01:56 -73.41, 52.60 108.05 54.13 70
2 03/24/2019 20:52:41 73.88,-138.97 72.37 03/24/2019 20:52:27 73.86,-139.00 72.35 2.66 14
3 03/24/2019 21:42:08 -73.93, 28.57 107.60 03/24/2019 21:43:07 -73.93, 28.49 107.60 2.39 59
4 03/27/2019 15:37:26 -73.69, 120.25 108.94 03/27/2019 15:36:14 -73.65, 119.56 108.95 22.01 72
5 03/27/2019 16:26:57 73.90, -72.57 71.27 03/27/2019 16:26:49 73.90, -72.50 71.28 2.17 8
6 03/27/2019 17:16:24 -73.94, 94.97 108.70 03/27/2019 17:17:30 -73.92, 94.88 108.72 3.38 66
7 03/30/2019 11:11:45 -73.82,-173.60 109.91 03/30/2019 11:10:34 -73.84,-173.59 109.88 2.04 71
8 03/30/2019 12:01:13 73.87, -6.07 70.14 03/30/2019 12:01:13 73.89, -6.13 70.16 2.73 0
9 03/30/2019 12:50:41 -73.97, 161.35 109.78 03/30/2019 12:51:53 -73.96, 161.39 109.79 1.26 72
10 04/02/2019 06:46:02 -73.85,-107.23 110.97 04/02/2019 06:44:58 -73.83,-107.20 110.98 2.57 64
11 04/02/2019 07:35:30 73.90, 60.30 69.07 04/02/2019 07:35:37 73.88, 60.25 69.05 2.79 7
12 04/02/2019 08:25:02 -74.20,-132.76 110.62 04/02/2019 08:26:12 -74.20,-131.62 110.67 34.44 70
13 04/05/2019 02:20:17 -73.83, -40.76 112.07 04/05/2019 02:19:21 -73.81, -40.83 112.08 2.80 56
14 04/05/2019 03:09:46 73.93, 126.65 68.02 04/05/2019 03:09:59 73.91, 126.74 68.00 3.52 13




NCC Satellite Simultaneous Nadir Overpasses (SNOs) Prediction Service
